[Date Prev][Date Next][Thread Prev][Thread Next] - [Date Index][Thread Index][Author Index]

2 Line ISS Keps 10-31



ISS
1 25544U 98067A   04305.27852693  .00031853  00000-0  26306-3 0   377
2 25544  51.6370 351.3478 0008478 298.9898 187.8363 15.69971174339691
----
Via the sarex mailing list at AMSAT.ORG courtesy of AMSAT-NA.
To unsubscribe, send "unsubscribe sarex" to Majordomo@amsat.org



AMSAT Top AMSAT Home